| time (UTC) | temp F | wind direction | speed MPH | gust MPH | rain 1hr in | rain 24hr in | rain mn in | humidity % | barometer mb |
| 20260508134527 | 59 | 204 | 0.0 | 3.0 | 0.00 | 0.00 | 0.00 | 64 | 1018.3 |
| 20260508133019 | 57 | 205 | 0.0 | 4.0 | 0.00 | 0.00 | 0.00 | 69 | 1018.2 |
| 20260508131513 | 57 | 222 | 1.0 | 2.0 | 0.00 | 0.00 | 0.00 | 76 | 1018.1 |
| 20260508130019 | 54 | 121 | 1.0 | 3.0 | 0.00 | 0.00 | 0.00 | 74 | 1017.9 |
| 20260508124524 | 53 | 128 | 0.0 | 0.0 | 0.00 | 0.00 | 0.00 | 77 | 1017.9 |
| 20260508123028 | 51 | 141 | 0.0 | 1.0 | 0.00 | 0.00 | 0.00 | 81 | 1018.0 |
| 20260508121512 | 50 | 125 | 0.0 | 2.0 | 0.00 | 0.00 | 0.00 | 83 | 1017.8 |
| 20260508120015 | 49 | 123 | 0.0 | 0.0 | 0.00 | 0.00 | 0.00 | 84 | 1017.6 |
| 20260508114521 | 46 | 105 | 0.0 | 1.0 | 0.00 | 0.00 | 0.00 | 87 | 1017.3 |
| 20260508113025 | 45 | 143 | 0.0 | 1.0 | 0.00 | 0.00 | 0.00 | 90 | 1017.0 |
| 20260508111535 | 44 | 138 | 0.0 | 1.0 | 0.00 | 0.00 | 0.00 | 93 | 1016.8 |
| 20260508110012 | 42 | 138 | 0.0 | 1.0 | 0.00 | 0.00 | 0.00 | 94 | 1016.6 |
| 20260508104517 | 41 | 139 | 0.0 | 1.0 | 0.00 | 0.00 | 0.00 | 94 | 1016.1 |
| 20260508103023 | 42 | 163 | 0.0 | 0.0 | 0.00 | 0.00 | 0.00 | 95 | 1015.9 |
| 20260508101510 | 42 | 131 | 0.0 | 0.0 | 0.00 | 0.00 | 0.00 | 94 | 1015.7 |
| 20260508100008 | 43 | 122 | 0.0 | 1.0 | 0.00 | 0.00 | 0.00 | 94 | 1015.7 |
| 20260508094514 | 43 | 111 | 0.0 | 1.0 | 0.00 | 0.00 | 0.00 | 95 | 1015.4 |
| 20260508093020 | 43 | 111 | 0.0 | 1.0 | 0.00 | 0.00 | 0.00 | 94 | 1015.4 |
| 20260508091504 | 43 | 111 | 0.0 | 1.0 | 0.00 | 0.00 | 0.00 | 94 | 1015.4 |
| 20260508090010 | 43 | 134 | 0.0 | 0.0 | 0.00 | 0.00 | 0.00 | 94 | 1015.4 |
| 20260508084512 | 43 | 135 | 0.0 | 0.0 | 0.00 | 0.00 | 0.00 | 94 | 1015.3 |
| 20260508083015 | 43 | 134 | 0.0 | 0.0 | 0.00 | 0.00 | 0.00 | 94 | 1015.3 |
| 20260508081520 | 44 | 134 | 0.0 | 0.0 | 0.00 | 0.00 | 0.00 | 94 | 1015.2 |
| 20260508080010 | 44 | 134 | 0.0 | 0.0 | 0.00 | 0.00 | 0.00 | 93 | 1015.1 |
| 20260508074512 | 44 | 134 | 0.0 | 0.0 | 0.00 | 0.00 | 0.00 | 93 | 1014.9 |
| 20260508073013 | 44 | 141 | 0.0 | 2.0 | 0.00 | 0.00 | 0.00 | 93 | 1014.8 |
| 20260508071521 | 45 | 116 | 1.0 | 2.0 | 0.00 | 0.00 | 0.00 | 94 | 1014.6 |
| 20260508070022 | 45 | 141 | 0.0 | 2.0 | 0.00 | 0.00 | 0.00 | 93 | 1014.6 |
| 20260508064533 | 45 | 125 | 0.0 | 1.0 | 0.00 | 0.00 | 0.00 | 94 | 1014.8 |
| 20260508063020 | 45 | 141 | 0.0 | 0.0 | 0.00 | 0.00 | 0.00 | 94 | 1014.7 |
| 20260508061517 | 45 | 141 | 0.0 | 0.0 | 0.00 | 0.00 | 0.00 | 93 | 1014.5 |
| 20260508060018 | 46 | 145 | 0.0 | 1.0 | 0.00 | 0.00 | 0.00 | 92 | 1014.6 |
| 20260508054521 | 46 | 146 | 0.0 | 1.0 | 0.00 | 0.00 | 0.00 | 91 | 1014.4 |
| 20260508053028 | 47 | 145 | 0.0 | 1.0 | 0.00 | 0.00 | 0.00 | 88 | 1014.3 |
| 20260508051506 | 47 | 146 | 0.0 | 1.0 | 0.00 | 0.00 | 0.00 | 90 | 1014.2 |
| 20260508050019 | 48 | 146 | 0.0 | 1.0 | 0.00 | 0.00 | 0.00 | 88 | 1014.2 |
| 20260508044518 | 48 | 136 | 0.0 | 1.0 | 0.00 | 0.00 | 0.00 | 86 | 1014.1 |
| 20260508043023 | 49 | 136 | 0.0 | 1.0 | 0.00 | 0.00 | 0.00 | 85 | 1014.1 |
| 20260508041526 | 49 | 131 | 0.0 | 1.0 | 0.00 | 0.00 | 0.00 | 85 | 1014.1 |
| 20260508040021 | 50 | 120 | 0.0 | 1.0 | 0.00 | 0.00 | 0.00 | 82 | 1014.1 |
| 20260508034516 | 49 | 137 | 0.0 | 1.0 | 0.00 | 0.00 | 0.00 | 86 | 1014.0 |
| 20260508033022 | 50 | 139 | 0.0 | 1.0 | 0.00 | 0.00 | 0.00 | 84 | 1013.9 |
| 20260508031529 | 50 | 140 | 0.0 | 1.0 | 0.00 | 0.00 | 0.00 | 84 | 1013.9 |
| 20260508030028 | 51 | 139 | 0.0 | 1.0 | 0.00 | 0.00 | 0.00 | 81 | 1014.0 |
| 20260508024518 | 51 | 153 | 0.0 | 0.0 | 0.00 | 0.00 | 0.00 | 83 | 1013.6 |
| 20260508023027 | 51 | 153 | 0.0 | 0.0 | 0.00 | 0.00 | 0.00 | 80 | 1013.6 |
| 20260508021520 | 51 | 153 | 0.0 | 1.0 | 0.00 | 0.00 | 0.00 | 81 | 1013.5 |
| 20260508020005 | 52 | 143 | 0.0 | 0.0 | 0.00 | 0.00 | 0.00 | 80 | 1013.2 |
| 20260508014540 | 55 | 132 | 0.0 | 1.0 | 0.00 | 0.00 | 0.00 | 71 | 1012.8 |
| 20260508013020 | 55 | 132 | 0.0 | 1.0 | 0.00 | 0.00 | 0.00 | 69 | 1012.5 |
| 20260508011521 | 56 | 129 | 1.0 | 3.0 | 0.00 | 0.00 | 0.00 | 67 | 1012.2 |
| 20260508010027 | 57 | 83 | 1.0 | 6.0 | 0.00 | 0.00 | 0.00 | 66 | 1012.0 |
| 20260508004529 | 58 | 122 | 3.0 | 8.0 | 0.00 | 0.00 | 0.00 | 66 | 1012.0 |
| 20260508003042 | 59 | 135 | 3.0 | 9.0 | 0.00 | 0.00 | 0.00 | 65 | 1011.5 |
| 20260508001515 | 60 | 131 | 3.0 | 9.0 | 0.00 | 0.00 | 0.00 | 66 | 1011.5 |
| 20260508000021 | 61 | 128 | 4.0 | 11.0 | 0.00 | 0.00 | 0.00 | 65 | 1011.6 |
| 20260507234523 | 62 | 94 | 5.0 | 15.0 | 0.00 | 0.00 | 0.00 | 66 | 1011.6 |
| 20260507233032 | 62 | 127 | 3.0 | 6.0 | 0.00 | 0.00 | 0.00 | 80 | 1011.2 |
| 20260507231510 | 63 | 143 | 1.0 | 6.0 | 0.00 | 0.00 | 0.00 | 82 | 1010.8 |
| 20260507230017 | 64 | 149 | 3.0 | 6.0 | 0.00 | 0.00 | 0.00 | 79 | 1010.5 |
| 20260507224524 | 64 | 176 | 4.0 | 10.0 | 0.00 | 0.00 | 0.00 | 80 | 1010.2 |
| 20260507223026 | 64 | 202 | 5.0 | 9.0 | 0.00 | 0.00 | 0.00 | 79 | 1009.8 |
| 20260507221529 | 64 | 199 | 5.0 | 11.0 | 0.00 | 0.00 | 0.00 | 80 | 1009.7 |
| 20260507220024 | 63 | 203 | 7.0 | 11.0 | 0.00 | 0.00 | 0.00 | 81 | 1009.5 |
| 20260507214522 | 63 | 213 | 7.0 | 14.0 | 0.00 | 0.00 | 0.00 | 82 | 1009.4 |
| 20260507213025 | 63 | 189 | 6.0 | 13.0 | 0.00 | 0.00 | 0.00 | 83 | 1009.2 |
| 20260507211526 | 62 | 179 | 2.0 | 12.0 | 0.00 | 0.00 | 0.00 | 87 | 1009.2 |
| 20260507210032 | 62 | 157 | 8.0 | 13.0 | 0.00 | 0.00 | 0.00 | 87 | 1008.9 |
| 20260507204522 | 62 | 154 | 7.0 | 17.0 | 0.00 | 0.00 | 0.00 | 87 | 1008.9 |
| 20260507203024 | 62 | 195 | 8.0 | 13.0 | 0.00 | 0.00 | 0.00 | 87 | 1008.6 |
| 20260507201527 | 62 | 195 | 6.0 | 20.0 | 0.00 | 0.00 | 0.00 | 87 | 1008.3 |
| 20260507200027 | 64 | 204 | 11.0 | 19.0 | 0.00 | 0.00 | 0.00 | 85 | 1008.2 |
| 20260507194530 | 65 | 194 | 10.0 | 15.0 | 0.00 | 0.00 | 0.00 | 85 | 1008.0 |
| 20260507193023 | 68 | 157 | 7.0 | 16.0 | 0.00 | 0.00 | 0.00 | 85 | 1007.8 |
| 20260507191520 | 71 | 23 | 4.0 | 10.0 | 0.00 | 0.00 | 0.00 | 69 | 1007.8 |
| 20260507190027 | 75 | 276 | 2.0 | 5.0 | 0.00 | 0.00 | 0.00 | 68 | 1007.8 |
| 20260507184525 | 76 | 273 | 3.0 | 6.0 | 0.00 | 0.00 | 0.00 | 68 | 1007.7 |
| 20260507183027 | 76 | 298 | 2.0 | 8.0 | 0.00 | 0.00 | 0.00 | 67 | 1007.9 |
| 20260507181515 | 76 | 283 | 5.0 | 8.0 | 0.00 | 0.00 | 0.00 | 69 | 1008.0 |
| 20260507180025 | 75 | 328 | 6.0 | 8.0 | 0.00 | 0.00 | 0.00 | 70 | 1008.2 |
| 20260507174526 | 75 | 307 | 2.0 | 8.0 | 0.00 | 0.00 | 0.00 | 71 | 1008.3 |
| 20260507173031 | 75 | 269 | 3.0 | 5.0 | 0.00 | 0.00 | 0.00 | 71 | 1008.3 |
| 20260507171527 | 73 | 354 | 2.0 | 7.0 | 0.00 | 0.00 | 0.00 | 72 | 1008.5 |
| 20260507170017 | 73 | 241 | 2.0 | 8.0 | 0.00 | 0.00 | 0.00 | 74 | 1008.8 |
| 20260507164505 | 73 | 334 | 3.0 | 8.0 | 0.00 | 0.00 | 0.00 | 72 | 1009.1 |
| 20260507163005 | 71 | 103 | 3.0 | 11.0 | 0.00 | 0.00 | 0.00 | 76 | 1009.4 |
| 20260507161510 | 70 | 318 | 4.0 | 6.0 | 0.00 | 0.00 | 0.00 | 80 | 1009.3 |
| 20260507160027 | 69 | 115 | 0.0 | 2.0 | 0.00 | 0.00 | 0.00 | 81 | 1009.3 |
| 20260507154529 | 69 | 37 | 2.0 | 6.0 | 0.00 | 0.00 | 0.00 | 82 | 1008.9 |
| 20260507153005 | 68 | 209 | 1.0 | 5.0 | 0.00 | 0.00 | 0.00 | 83 | 1009.0 |
| 20260507151510 | 65 | 322 | 2.0 | 5.0 | 0.00 | 0.00 | 0.00 | 92 | 1009.4 |
| 20260507150013 | 64 | 222 | 1.0 | 4.0 | 0.00 | 0.00 | 0.00 | 93 | 1009.6 |
| 20260507144528 | 64 | 293 | 2.0 | 3.0 | 0.00 | 0.00 | 0.00 | 94 | 1010.1 |
| 20260507143032 | 63 | 300 | 1.0 | 3.0 | 0.00 | 0.00 | 0.00 | 95 | 1010.0 |
| 20260507141506 | 63 | 292 | 3.0 | 4.0 | 0.00 | 0.00 | 0.00 | 95 | 1010.1 |
| 20260507140013 | 63 | 276 | 1.0 | 2.0 | 0.00 | 0.00 | 0.00 | 96 | 1009.5 |